Time,TemperatureF,DewpointF,PressureIn,WindDirection,WindDirectionDegrees,WindSpeedMPH,WindSpeedGustMPH,Humidity,HourlyPrecipIn,Conditions,Clouds,dailyrainin,SoftwareType,DateUTC
2013-08-17 00:13:00,65.0,58.0,30.11,ESE,106,0.0,0.0,77,0.00,,,0.00,,2013-08-17 05:13:00,
2013-08-17 00:22:00,63.0,55.0,30.11,ESE,106,0.0,1.0,76,0.00,,,0.00,,2013-08-17 05:22:00,
2013-08-17 00:42:00,64.0,56.0,30.11,ESE,106,0.0,0.0,76,0.00,,,0.00,,2013-08-17 05:42:00,
2013-08-17 00:52:00,63.0,56.0,30.11,ESE,106,0.0,0.0,78,0.00,,,0.00,,2013-08-17 05:52:00,
2013-08-17 01:12:00,62.0,55.0,30.11,ESE,106,0.0,0.0,79,0.00,,,0.00,,2013-08-17 06:12:00,
2013-08-17 01:21:00,62.0,55.0,30.11,ESE,106,0.0,0.0,79,0.00,,,0.00,,2013-08-17 06:21:00,
2013-08-17 01:51:00,61.0,55.0,30.11,ESE,106,0.0,0.0,81,0.00,,,0.00,,2013-08-17 06:51:00,
2013-08-17 02:01:00,61.0,55.0,30.11,ESE,106,0.0,0.0,81,0.00,,,0.00,,2013-08-17 07:01:00,
2013-08-17 02:11:00,61.0,55.0,30.11,ESE,106,0.0,0.0,81,0.00,,,0.00,,2013-08-17 07:11:00,
2013-08-17 02:22:00,60.0,54.0,30.11,ESE,106,0.0,0.0,82,0.00,,,0.00,,2013-08-17 07:22:00,
2013-08-17 02:52:00,60.0,55.0,30.11,ESE,106,0.0,0.0,85,0.00,,,0.00,,2013-08-17 07:52:00,
2013-08-17 03:11:00,59.0,54.0,30.11,ESE,106,0.0,0.0,85,0.00,,,0.00,,2013-08-17 08:11:00,
2013-08-17 03:21:00,59.0,54.0,30.11,ESE,106,0.0,0.0,85,0.00,,,0.00,,2013-08-17 08:21:00,
2013-08-17 03:42:00,59.0,55.0,30.11,ESE,106,0.0,0.0,86,0.00,,,0.00,,2013-08-17 08:42:00,
2013-08-17 03:52:00,59.0,55.0,30.11,ESE,106,0.0,0.0,87,0.00,,,0.00,,2013-08-17 08:52:00,
2013-08-17 04:11:00,58.0,54.0,30.11,ESE,106,0.0,0.0,87,0.00,,,0.00,,2013-08-17 09:11:00,
2013-08-17 04:21:00,58.0,54.0,30.11,ESE,106,0.0,0.0,87,0.00,,,0.00,,2013-08-17 09:21:00,
2013-08-17 04:33:00,58.0,54.0,30.11,ESE,106,0.0,0.0,87,0.00,,,0.00,,2013-08-17 09:33:00,
2013-08-17 04:43:00,58.0,54.0,30.11,ESE,106,0.0,0.0,87,0.00,,,0.00,,2013-08-17 09:43:00,
2013-08-17 04:53:00,57.0,53.0,30.11,ESE,106,0.0,2.0,88,0.00,,,0.00,,2013-08-17 09:53:00,
2013-08-17 05:12:00,57.0,53.0,30.12,ESE,106,0.0,0.0,88,0.00,,,0.00,,2013-08-17 10:12:00,
2013-08-17 05:23:00,57.0,53.0,30.12,ESE,106,0.0,0.0,88,0.00,,,0.00,,2013-08-17 10:23:00,
2013-08-17 05:53:00,56.0,52.0,30.12,ESE,106,0.0,0.0,87,0.00,,,0.00,,2013-08-17 10:53:00,
2013-08-17 06:11:00,56.0,53.0,30.12,ESE,106,0.0,0.0,89,0.00,,,0.00,,2013-08-17 11:11:00,
2013-08-17 06:22:00,55.0,52.0,30.13,ESE,106,0.0,0.0,89,0.00,,,0.00,,2013-08-17 11:22:00,
2013-08-17 06:42:00,55.0,52.0,30.14,ESE,106,0.0,0.0,89,0.00,,,0.00,,2013-08-17 11:42:00,
2013-08-17 06:52:00,54.0,51.0,30.14,ESE,106,0.0,0.0,90,0.00,,,0.00,,2013-08-17 11:52:00,
2013-08-17 07:11:00,55.0,52.0,30.14,ESE,106,0.0,0.0,91,0.00,,,0.00,,2013-08-17 12:11:00,
2013-08-17 07:21:00,55.0,52.0,30.14,ESE,106,0.0,0.0,91,0.00,,,0.00,,2013-08-17 12:21:00,
2013-08-17 07:32:00,55.0,52.0,30.14,ESE,106,0.0,0.0,91,0.00,,,0.00,,2013-08-17 12:32:00,
2013-08-17 07:42:00,55.0,52.0,30.14,ESE,106,0.0,0.0,91,0.00,,,0.00,,2013-08-17 12:42:00,
2013-08-17 07:52:00,58.0,54.0,30.15,ESE,106,0.0,0.0,87,0.00,,,0.00,,2013-08-17 12:52:00,
2013-08-17 08:11:00,59.0,54.0,30.15,ESE,106,0.0,2.0,85,0.00,,,0.00,,2013-08-17 13:11:00,
2013-08-17 08:21:00,59.0,54.0,30.15,ESE,106,0.0,2.0,85,0.00,,,0.00,,2013-08-17 13:21:00,
2013-08-17 08:42:00,63.0,58.0,30.16,ESE,105,2.0,4.0,83,0.00,,,0.00,,2013-08-17 13:42:00,
2013-08-17 08:52:00,64.0,58.0,30.16,ESE,104,1.0,2.0,82,0.00,,,0.00,,2013-08-17 13:52:00,
2013-08-17 09:11:00,65.0,58.0,30.16,East,98,0.0,5.0,79,0.00,,,0.00,,2013-08-17 14:11:00,
2013-08-17 09:21:00,68.0,61.0,30.16,East,97,0.0,2.0,77,0.00,,,0.00,,2013-08-17 14:21:00,
2013-08-17 09:42:00,69.0,60.0,30.16,ESE,121,4.0,4.0,73,0.00,,,0.00,,2013-08-17 14:42:00,
2013-08-17 09:52:00,70.0,60.0,30.16,East,92,1.0,4.0,71,0.00,,,0.00,,2013-08-17 14:52:00,
2013-08-17 10:11:00,72.0,60.0,30.16,ESE,112,0.0,4.0,67,0.00,,,0.00,,2013-08-17 15:11:00,
2013-08-17 10:22:00,73.0,60.0,30.16,East,79,1.0,6.0,64,0.00,,,0.00,,2013-08-17 15:22:00,
2013-08-17 10:43:00,75.0,62.0,30.16,SE,140,0.0,5.0,63,0.00,,,0.00,,2013-08-17 15:43:00,
2013-08-17 10:53:00,76.0,60.0,30.17,SE,143,0.0,6.0,57,0.00,,,0.00,,2013-08-17 15:53:00,
2013-08-17 11:12:00,76.0,59.0,30.16,ESE,115,2.0,7.0,56,0.00,,,0.00,,2013-08-17 16:12:00,
2013-08-17 11:23:00,77.0,60.0,30.16,East,88,5.0,5.0,56,0.00,,,0.00,,2013-08-17 16:23:00,
2013-08-17 11:42:00,76.0,58.0,30.16,ESE,122,0.0,6.0,54,0.00,,,0.00,,2013-08-17 16:42:00,
2013-08-17 11:53:00,77.0,59.0,30.16,NE,43,1.0,6.0,54,0.00,,,0.00,,2013-08-17 16:53:00,
2013-08-17 12:02:00,77.0,59.0,30.16,NE,43,1.0,6.0,54,0.00,,,0.00,,2013-08-17 17:02:00,
2013-08-17 12:12:00,77.0,59.0,30.16,NE,43,1.0,6.0,54,0.00,,,0.00,,2013-08-17 17:12:00,
2013-08-17 12:23:00,78.0,59.0,30.14,SE,134,5.0,7.0,53,0.00,,,0.00,,2013-08-17 17:23:00,
2013-08-17 12:52:00,78.0,57.0,30.14,East,86,3.0,8.0,49,0.00,,,0.00,,2013-08-17 17:52:00,
2013-08-17 13:12:00,78.0,58.0,30.14,ESE,103,1.0,7.0,51,0.00,,,0.00,,2013-08-17 18:12:00,
2013-08-17 13:21:00,80.0,59.0,30.13,SSE,156,0.0,7.0,49,0.00,,,0.00,,2013-08-17 18:21:00,
2013-08-17 13:42:00,79.0,58.0,30.13,SE,134,2.0,8.0,48,0.00,,,0.00,,2013-08-17 18:42:00,
2013-08-17 13:52:00,79.0,59.0,30.12,ENE,60,1.0,7.0,50,0.00,,,0.00,,2013-08-17 18:52:00,
2013-08-17 14:11:00,81.0,58.0,30.12,East,82,1.0,7.0,46,0.00,,,0.00,,2013-08-17 19:11:00,
2013-08-17 14:21:00,80.0,57.0,30.12,ESE,111,0.0,7.0,46,0.00,,,0.00,,2013-08-17 19:21:00,
2013-08-17 14:31:00,80.0,57.0,30.12,ESE,111,0.0,7.0,46,0.00,,,0.00,,2013-08-17 19:31:00,
2013-08-17 14:42:00,80.0,57.0,30.12,ESE,111,0.0,7.0,46,0.00,,,0.00,,2013-08-17 19:42:00,
2013-08-17 14:52:00,80.0,59.0,30.11,East,86,6.0,6.0,49,0.00,,,0.00,,2013-08-17 19:52:00,
2013-08-17 15:11:00,80.0,58.0,30.11,East,88,3.0,6.0,47,0.00,,,0.00,,2013-08-17 20:11:00,
2013-08-17 15:21:00,82.0,60.0,30.11,East,82,0.0,5.0,47,0.00,,,0.00,,2013-08-17 20:21:00,
2013-08-17 15:42:00,83.0,59.0,30.10,SSE,148,4.0,6.0,45,0.00,,,0.00,,2013-08-17 20:42:00,
2013-08-17 15:52:00,83.0,59.0,30.10,SSE,150,2.0,6.0,45,0.00,,,0.00,,2013-08-17 20:52:00,
2013-08-17 16:11:00,81.0,58.0,30.10,ENE,75,2.0,6.0,46,0.00,,,0.00,,2013-08-17 21:11:00,
2013-08-17 16:21:00,81.0,57.0,30.09,SE,146,0.0,7.0,44,0.00,,,0.00,,2013-08-17 21:21:00,
2013-08-17 16:42:00,81.0,57.0,30.09,East,94,2.0,7.0,44,0.00,,,0.00,,2013-08-17 21:42:00,
2013-08-17 16:54:00,81.0,58.0,30.09,ESE,105,2.0,6.0,46,0.00,,,0.00,,2013-08-17 21:54:00,
2013-08-17 17:13:00,80.0,57.0,30.09,East,94,1.0,5.0,46,0.00,,,0.00,,2013-08-17 22:13:00,
2013-08-17 17:22:00,79.0,58.0,30.09,ESE,111,1.0,5.0,48,0.00,,,0.00,,2013-08-17 22:22:00,
2013-08-17 17:42:00,80.0,58.0,30.09,East,90,2.0,5.0,47,0.00,,,0.00,,2013-08-17 22:42:00,
2013-08-17 17:52:00,80.0,58.0,30.09,East,92,6.0,6.0,47,0.00,,,0.00,,2013-08-17 22:52:00,
2013-08-17 18:11:00,80.0,59.0,30.09,SE,146,1.0,4.0,48,0.00,,,0.00,,2013-08-17 23:11:00,
2013-08-17 18:22:00,80.0,59.0,30.09,SE,146,0.0,2.0,48,0.00,,,0.00,,2013-08-17 23:22:00,
2013-08-17 18:42:00,79.0,58.0,30.08,East,83,0.0,4.0,48,0.00,,,0.00,,2013-08-17 23:42:00,
2013-08-17 18:52:00,78.0,59.0,30.08,SE,143,0.0,2.0,53,0.00,,,0.00,,2013-08-17 23:52:00,
2013-08-17 19:21:00,77.0,59.0,30.08,SE,143,0.0,0.0,54,0.00,,,0.00,,2013-08-18 00:21:00,
2013-08-17 19:42:00,77.0,60.0,30.08,SE,143,0.0,0.0,56,0.00,,,0.00,,2013-08-18 00:42:00,
2013-08-17 19:52:00,76.0,60.0,30.08,SE,143,0.0,0.0,57,0.00,,,0.00,,2013-08-18 00:52:00,
2013-08-17 20:11:00,75.0,59.0,30.07,SE,143,0.0,0.0,57,0.00,,,0.00,,2013-08-18 01:11:00,
2013-08-17 20:21:00,74.0,60.0,30.08,SE,143,0.0,0.0,62,0.00,,,0.00,,2013-08-18 01:21:00,
2013-08-17 20:42:00,73.0,59.0,30.07,SE,143,0.0,0.0,62,0.00,,,0.00,,2013-08-18 01:42:00,
2013-08-17 20:52:00,72.0,59.0,30.08,SE,143,0.0,0.0,63,0.00,,,0.00,,2013-08-18 01:52:00,
2013-08-17 21:11:00,70.0,58.0,30.08,SE,143,0.0,0.0,66,0.00,,,0.00,,2013-08-18 02:11:00,
2013-08-17 21:21:00,69.0,58.0,30.09,SE,143,0.0,0.0,69,0.00,,,0.00,,2013-08-18 02:21:00,
2013-08-17 21:42:00,69.0,59.0,30.09,SE,143,0.0,0.0,71,0.00,,,0.00,,2013-08-18 02:42:00,
2013-08-17 21:52:00,68.0,59.0,30.09,SE,143,0.0,0.0,72,0.00,,,0.00,,2013-08-18 02:52:00,
2013-08-17 22:11:00,67.0,58.0,30.09,SE,143,0.0,0.0,74,0.00,,,0.00,,2013-08-18 03:11:00,
2013-08-17 22:21:00,66.0,58.0,30.08,SE,143,0.0,0.0,76,0.00,,,0.00,,2013-08-18 03:21:00,
2013-08-17 22:33:00,66.0,58.0,30.08,SE,143,0.0,0.0,76,0.00,,,0.00,,2013-08-18 03:33:00,
2013-08-17 22:43:00,66.0,58.0,30.08,SE,143,0.0,0.0,76,0.00,,,0.00,,2013-08-18 03:43:00,
2013-08-17 22:53:00,66.0,59.0,30.09,SE,126,0.0,0.0,77,0.00,,,0.00,,2013-08-18 03:53:00,
2013-08-17 23:02:00,-999.0,-99.9,30.09,SE,126,0.0,0.0,-999,0.00,,,0.00,,2013-08-18 04:02:00,
2013-08-17 23:12:00,66.0,58.0,30.09,SE,126,0.0,0.0,75,0.00,,,0.00,,2013-08-18 04:12:00,
2013-08-17 23:23:00,66.0,58.0,30.09,SE,126,0.0,0.0,76,0.00,,,0.00,,2013-08-18 04:23:00,
2013-08-17 23:42:00,65.0,58.0,30.09,SE,132,0.0,5.0,78,0.00,,,0.00,,2013-08-18 04:42:00,
2013-08-17 23:53:00,64.0,58.0,30.09,SE,132,0.0,0.0,80,0.00,,,0.00,,2013-08-18 04:53:00,